Consulta les dades en temps real de l'estació meteorològica de Grions - St- Feliu de Buixalleu
| Hora UTC | 16:50 |
|---|---|
| Temperatura | 31.9 ºC |
| Humitat | 63.6 % |
| Pressió | 1017.6 hPa |
| Pluja | 0.0 mm |
| Velocitat vent | 7.2 km/h |
| Direcció vent |
| Temperatura (ºC) | Humitat (%) | Pressió (hPa) | Velocitat vent (km/h) | Precipitació (mm) | ||||||||||||
|---|---|---|---|---|---|---|---|---|---|---|---|---|---|---|---|---|
| Hora UTC | Aire | Humitat | Pressió | Vel. | Dir. | Vel. Max | Dir. | Intent. màx 5 min. | ||||||||
| 00:05 | 22.5 | 83.1 | 1020.6 | 2.7 | 15.3 | 0.0 | ||||||||||
| 00:10 | 22.6 | 82.7 | 1020.5 | 3.0 | 15.3 | 0.0 | ||||||||||
| 00:15 | 22.6 | 82.4 | 1020.5 | 3.2 | 15.3 | 0.0 | ||||||||||
| 00:20 | 22.7 | 82.8 | 1020.4 | 1.5 | 15.3 | 0.0 | ||||||||||
| 00:25 | 22.7 | 82.4 | 1020.4 | 1.4 | 15.3 | 0.0 | ||||||||||
| 00:30 | 22.9 | 81.8 | 1020.5 | 3.1 | 15.3 | 0.0 | ||||||||||
| 00:35 | 22.9 | 80.7 | 1020.4 | 2.2 | 15.3 | 0.0 | ||||||||||
| 00:40 | 22.9 | 80.7 | 1020.4 | 2.2 | 15.3 | 0.0 | ||||||||||
| 00:45 | 22.7 | 80.9 | 1020.3 | 3.2 | 15.3 | 0.0 | ||||||||||
| 00:50 | 22.4 | 81.0 | 1020.3 | 3.7 | 15.3 | 0.0 | ||||||||||
| 00:55 | 22.3 | 81.2 | 1020.3 | 4.0 | 15.3 | 0.0 | ||||||||||
| 01:00 | 22.3 | 81.2 | 1020.3 | 4.0 | 15.3 | 0.0 | ||||||||||
| 01:05 | 21.9 | 81.1 | 1020.1 | 1.8 | 15.3 | 0.0 | ||||||||||
| 01:10 | 21.7 | 80.7 | 1020.2 | 5.1 | 15.3 | 0.0 | ||||||||||
| 01:15 | 21.6 | 80.8 | 1020.1 | 4.7 | 15.3 | 0.0 | ||||||||||
| 01:20 | 21.6 | 80.8 | 1020.1 | 4.7 | 15.3 | 0.0 | ||||||||||
| 01:25 | 21.3 | 81.1 | 1019.9 | 5.9 | 5.5 | 0.0 | ||||||||||
| 01:30 | 21.3 | 80.5 | 1019.9 | 6.5 | 6.8 | 0.0 | ||||||||||
| 01:35 | 21.2 | 80.4 | 1019.8 | 5.7 | 6.8 | 0.0 | ||||||||||
| 01:40 | 21.2 | 80.4 | 1019.8 | 5.7 | 6.8 | 0.0 | ||||||||||
| 01:45 | 21.1 | 80.9 | 1019.8 | 5.8 | 6.8 | 0.0 | ||||||||||
| 01:50 | 21.1 | 80.9 | 1019.8 | 5.8 | 6.8 | 0.0 | ||||||||||
| 01:55 | 20.9 | 81.1 | 1019.9 | 3.8 | 6.8 | 0.0 | ||||||||||
| 02:00 | 20.9 | 81.1 | 1019.9 | 3.8 | 6.8 | 0.0 | ||||||||||
| 02:05 | 20.6 | 81.5 | 1019.7 | 4.3 | 6.8 | 0.0 | ||||||||||
| 02:10 | 20.6 | 81.6 | 1019.6 | 2.9 | 6.8 | 0.0 | ||||||||||
| 02:15 | 20.4 | 82.1 | 1019.7 | 3.6 | 6.8 | 0.0 | ||||||||||
| 02:20 | 20.3 | 82.4 | 1019.7 | 4.3 | 6.8 | 0.0 | ||||||||||
| 02:25 | 20.2 | 82.7 | 1019.7 | 3.5 | 6.8 | 0.0 | ||||||||||
| 02:30 | 20.2 | 82.9 | 1019.7 | 2.3 | 6.8 | 0.0 | ||||||||||
| 02:35 | 20.1 | 82.9 | 1019.7 | 0.1 | 6.8 | 0.0 | ||||||||||
| 02:40 | 20.1 | 82.9 | 1019.7 | 0.1 | 6.8 | 0.0 | ||||||||||
| 02:45 | 20.1 | 82.8 | 1019.5 | 2.0 | 6.8 | 0.0 | ||||||||||
| 02:50 | 20.1 | 82.8 | 1019.5 | 2.0 | 6.8 | 0.0 | ||||||||||
| 02:55 | 20.0 | 83.0 | 1019.6 | 0.0 | 6.8 | 0.0 | ||||||||||
| 03:00 | 19.9 | 83.2 | 1019.6 | 0.0 | 6.8 | 0.0 | ||||||||||
| 03:05 | 19.9 | 83.5 | 1019.5 | 0.0 | 6.8 | 0.0 | ||||||||||
| 03:10 | 19.9 | 83.5 | 1019.5 | 0.0 | 6.8 | 0.0 | ||||||||||
| 03:15 | 19.9 | 84.0 | 1019.5 | 1.1 | 6.8 | 0.0 | ||||||||||
| 03:20 | 19.9 | 84.0 | 1019.5 | 1.1 | 6.8 | 0.0 | ||||||||||
| 03:25 | 19.9 | 84.5 | 1019.4 | 0.0 | 6.8 | 0.0 | ||||||||||
| 03:30 | 19.9 | 84.5 | 1019.3 | 0.0 | 6.8 | 0.0 | ||||||||||
| 03:35 | 19.9 | 83.9 | 1019.3 | 0.0 | 6.8 | 0.0 | ||||||||||
| 03:40 | 19.9 | 83.7 | 1019.2 | 0.0 | 6.8 | 0.0 | ||||||||||
| 03:45 | 19.8 | 83.8 | 1019.2 | 0.0 | 6.8 | 0.0 | ||||||||||
| 03:50 | 19.8 | 83.8 | 1019.2 | 0.0 | 6.8 | 0.0 | ||||||||||
| 03:55 | 19.7 | 84.2 | 1019.1 | 0.0 | 6.8 | 0.0 | ||||||||||
| 04:00 | 19.7 | 84.2 | 1019.1 | 0.0 | 6.8 | 0.0 | ||||||||||
| 04:05 | 19.4 | 85.1 | 1019.0 | 2.6 | 6.8 | 0.0 | ||||||||||
| 04:10 | 19.3 | 85.4 | 1019.0 | 1.7 | 6.8 | 0.0 | ||||||||||
| 04:15 | 19.3 | 85.7 | 1019.0 | 1.2 | 6.8 | 0.0 | ||||||||||
| 04:20 | 19.3 | 85.7 | 1019.0 | 1.2 | 6.8 | 0.0 | ||||||||||
| 04:25 | 19.2 | 85.9 | 1018.9 | 0.0 | 6.8 | 0.0 | ||||||||||
| 04:30 | 19.2 | 86.0 | 1018.9 | 0.0 | 6.8 | 0.0 | ||||||||||
| 04:35 | 19.1 | 86.1 | 1018.9 | 0.0 | 6.8 | 0.0 | ||||||||||
| 04:40 | 19.0 | 86.5 | 1018.9 | 0.0 | 6.8 | 0.0 | ||||||||||
| 04:45 | 19.0 | 86.5 | 1019.0 | 0.3 | 6.8 | 0.0 | ||||||||||
| 04:50 | 19.0 | 86.4 | 1019.0 | 0.2 | 6.8 | 0.0 | ||||||||||
| 04:55 | 19.1 | 86.8 | 1019.0 | 0.8 | 6.8 | 0.0 | ||||||||||
| 05:00 | 19.1 | 86.3 | 1019.1 | 0.3 | 6.8 | 0.0 | ||||||||||
| 05:05 | 18.9 | 86.3 | 1019.0 | 2.1 | 6.8 | 0.0 | ||||||||||
| 05:10 | 18.9 | 86.6 | 1019.1 | 0.0 | 6.8 | 0.0 | ||||||||||
| 05:15 | 18.8 | 86.9 | 1019.1 | 0.0 | 6.8 | 0.0 | ||||||||||
| 05:20 | 18.8 | 86.9 | 1019.1 | 0.0 | 6.8 | 0.0 | ||||||||||
| 05:25 | 18.7 | 87.3 | 1018.9 | 0.0 | 6.8 | 0.0 | ||||||||||
| 05:30 | 18.7 | 87.0 | 1018.9 | 0.0 | 6.8 | 0.0 | ||||||||||
| 05:35 | 18.7 | 87.2 | 1019.0 | 0.0 | 6.8 | 0.0 | ||||||||||
| 05:40 | 18.7 | 87.2 | 1019.0 | 0.0 | 6.8 | 0.0 | ||||||||||
| 05:45 | 18.7 | 87.4 | 1019.1 | 0.0 | 6.8 | 0.0 | ||||||||||
| 05:50 | 18.8 | 87.7 | 1019.0 | 0.0 | 6.8 | 0.0 | ||||||||||
| 05:55 | 19.0 | 87.6 | 1019.0 | 0.0 | 6.8 | 0.0 | ||||||||||
| 06:00 | 19.2 | 87.3 | 1019.0 | 0.7 | 6.8 | 0.0 | ||||||||||
| 06:05 | 19.4 | 86.8 | 1019.1 | 0.0 | 6.8 | 0.0 | ||||||||||
| 06:10 | 19.8 | 85.9 | 1019.1 | 0.0 | 6.8 | 0.0 | ||||||||||
| 06:15 | 20.1 | 84.7 | 1019.2 | 2.2 | 6.8 | 0.0 | ||||||||||
| 06:20 | 20.4 | 84.0 | 1019.2 | 0.4 | 6.8 | 0.0 | ||||||||||
| 06:25 | 20.9 | 83.0 | 1019.3 | 0.7 | 6.8 | 0.0 | ||||||||||
| 06:30 | 21.3 | 81.8 | 1019.3 | 0.9 | 6.8 | 0.0 | ||||||||||
| 06:35 | 21.8 | 80.2 | 1019.3 | 0.2 | 6.8 | 0.0 | ||||||||||
| 06:40 | 22.1 | 78.7 | 1019.4 | 0.9 | 6.8 | 0.0 | ||||||||||
| 06:45 | 22.5 | 77.1 | 1019.4 | 1.9 | 6.8 | 0.0 | ||||||||||
| 06:50 | 22.8 | 76.4 | 1019.3 | 1.7 | 6.8 | 0.0 | ||||||||||
| 06:55 | 23.2 | 75.4 | 1019.3 | 3.0 | 6.8 | 0.0 | ||||||||||
| 07:00 | 23.2 | 75.4 | 1019.3 | 3.0 | 6.8 | 0.0 | ||||||||||
| 07:05 | 23.6 | 74.7 | 1019.3 | 3.3 | 6.8 | 0.0 | ||||||||||
| 07:10 | 23.8 | 74.2 | 1019.2 | 3.5 | 6.8 | 0.0 | ||||||||||
| 07:15 | 24.1 | 73.1 | 1019.2 | 3.2 | 6.8 | 0.0 | ||||||||||
| 07:20 | 24.1 | 73.1 | 1019.2 | 3.2 | 6.8 | 0.0 | ||||||||||
| 07:25 | 24.9 | 71.9 | 1019.2 | 1.6 | 6.8 | 0.0 | ||||||||||
| 07:30 | 24.9 | 71.9 | 1019.2 | 1.6 | 6.8 | 0.0 | ||||||||||
| 07:35 | 26.0 | 68.6 | 1019.2 | 1.3 | 6.8 | 0.0 | ||||||||||
| 07:40 | 26.0 | 68.6 | 1019.2 | 1.3 | 6.8 | 0.0 | ||||||||||
| 07:45 | 26.8 | 66.8 | 1019.3 | 2.4 | 6.8 | 0.0 | ||||||||||
| 07:50 | 26.8 | 66.8 | 1019.3 | 2.4 | 6.8 | 0.0 | ||||||||||
| 07:55 | 27.4 | 65.5 | 1019.3 | 1.3 | 6.8 | 0.0 | ||||||||||
| 08:00 | 27.8 | 64.6 | 1019.4 | 1.9 | 6.8 | 0.0 | ||||||||||
| 08:05 | 28.3 | 64.2 | 1019.4 | 1.9 | 6.8 | 0.0 | ||||||||||
| 08:10 | 28.6 | 62.9 | 1019.4 | 2.6 | 6.8 | 0.0 | ||||||||||
| 08:15 | 28.7 | 62.6 | 1019.3 | 2.3 | 6.8 | 0.0 | ||||||||||
| 08:20 | 28.9 | 62.2 | 1019.3 | 3.0 | 6.8 | 0.0 | ||||||||||
| 08:25 | 29.2 | 61.6 | 1019.3 | 2.6 | 6.8 | 0.0 | ||||||||||
| 08:30 | 29.2 | 61.6 | 1019.3 | 2.6 | 6.8 | 0.0 | ||||||||||
| 08:35 | 29.9 | 54.0 | 1019.4 | 4.4 | 6.9 | 0.0 | ||||||||||
| 08:40 | 30.1 | 52.1 | 1019.4 | 4.0 | 6.9 | 0.0 | ||||||||||
| 08:45 | 30.4 | 52.7 | 1019.5 | 3.3 | 6.9 | 0.0 | ||||||||||
| 08:50 | 30.7 | 49.4 | 1019.5 | 5.0 | 6.9 | 0.0 | ||||||||||
| 08:55 | 30.8 | 49.6 | 1019.4 | 4.1 | 6.9 | 0.0 | ||||||||||
| 09:00 | 30.9 | 49.2 | 1019.5 | 4.3 | 6.9 | 0.0 | ||||||||||
| 09:05 | 31.1 | 49.2 | 1019.3 | 3.4 | 6.9 | 0.0 | ||||||||||
| 09:10 | 31.3 | 50.3 | 1019.4 | 6.1 | 6.9 | 0.0 | ||||||||||
| 09:15 | 31.3 | 50.1 | 1019.6 | 4.7 | 6.9 | 0.0 | ||||||||||
| 09:20 | 31.6 | 50.3 | 1019.6 | 2.5 | 6.9 | 0.0 | ||||||||||
| 09:25 | 31.8 | 49.1 | 1019.6 | 4.0 | 6.9 | 0.0 | ||||||||||
| 09:30 | 31.8 | 49.1 | 1019.6 | 5.0 | 6.9 | 0.0 | ||||||||||
| 09:35 | 31.9 | 50.0 | 1019.6 | 5.1 | 6.9 | 0.0 | ||||||||||
| 09:40 | 32.2 | 49.0 | 1019.7 | 4.2 | 6.9 | 0.0 | ||||||||||
| 09:45 | 32.3 | 48.2 | 1019.6 | 4.7 | 7.0 | 0.0 | ||||||||||
| 09:50 | 32.4 | 48.5 | 1019.6 | 3.4 | 7.0 | 0.0 | ||||||||||
| 09:55 | 32.7 | 48.6 | 1019.5 | 2.9 | 7.0 | 0.0 | ||||||||||
| 10:00 | 33.1 | 47.6 | 1019.5 | 4.1 | 7.0 | 0.0 | ||||||||||
| 10:05 | 33.2 | 48.9 | 1019.4 | 5.9 | 7.0 | 0.0 | ||||||||||
| 10:10 | 33.3 | 49.8 | 1019.4 | 5.7 | 7.0 | 0.0 | ||||||||||
| 10:15 | 33.3 | 49.8 | 1019.2 | 6.1 | 7.3 | 0.0 | ||||||||||
| 10:20 | 33.3 | 49.4 | 1019.3 | 7.2 | 7.3 | 0.0 | ||||||||||
| 10:25 | 33.3 | 50.4 | 1019.2 | 5.0 | 9.1 | 0.0 | ||||||||||
| 10:30 | 33.4 | 49.9 | 1019.2 | 5.5 | 9.1 | 0.0 | ||||||||||
| 10:35 | 33.5 | 50.0 | 1019.3 | 5.8 | 9.1 | 0.0 | ||||||||||
| 10:40 | 33.5 | 50.0 | 1019.3 | 5.8 | 9.1 | 0.0 | ||||||||||
| 10:45 | 33.4 | 49.9 | 1019.2 | 5.0 | 9.1 | 0.0 | ||||||||||
| 10:50 | 33.4 | 49.9 | 1019.2 | 5.0 | 9.1 | 0.0 | ||||||||||
| 10:55 | 33.6 | 52.4 | 1019.2 | 4.6 | 9.1 | 0.0 | ||||||||||
| 11:00 | 33.6 | 52.4 | 1019.2 | 4.6 | 9.1 | 0.0 | ||||||||||
| 11:05 | 33.7 | 51.1 | 1019.1 | 6.1 | 9.1 | 0.0 | ||||||||||
| 11:10 | 33.6 | 51.1 | 1019.2 | 6.3 | 9.1 | 0.0 | ||||||||||
| 11:15 | 33.7 | 51.5 | 1019.2 | 6.7 | 9.1 | 0.0 | ||||||||||
| 11:20 | 33.7 | 51.5 | 1019.2 | 6.7 | 9.1 | 0.0 | ||||||||||
| 11:25 | 33.4 | 51.5 | 1019.0 | 8.7 | 9.7 | 0.0 | ||||||||||
| 11:30 | 33.4 | 52.1 | 1019.1 | 6.5 | 9.7 | 0.0 | ||||||||||
| 11:35 | 33.4 | 51.4 | 1019.0 | 8.2 | 10.6 | 0.0 | ||||||||||
| 11:40 | 33.5 | 51.2 | 1019.0 | 7.6 | 10.6 | 0.0 | ||||||||||
| 11:45 | 33.5 | 52.3 | 1018.8 | 9.4 | 10.6 | 0.0 | ||||||||||
| 11:50 | 33.5 | 54.0 | 1018.9 | 7.2 | 10.6 | 0.0 | ||||||||||
| 11:55 | 33.2 | 54.4 | 1018.9 | 10.3 | 10.6 | 0.0 | ||||||||||
| 12:00 | 33.2 | 54.2 | 1018.8 | 10.1 | 10.6 | 0.0 | ||||||||||
| 12:05 | 33.1 | 54.8 | 1018.9 | 7.0 | 11.3 | 0.0 | ||||||||||
| 12:10 | 33.1 | 54.8 | 1018.9 | 7.0 | 11.3 | 0.0 | ||||||||||
| 12:15 | 33.3 | 54.5 | 1018.9 | 6.4 | 15.9 | 0.0 | ||||||||||
| 12:20 | 33.4 | 53.1 | 1018.7 | 5.9 | 15.9 | 0.0 | ||||||||||
| 12:25 | 33.7 | 53.3 | 1018.7 | 6.3 | 15.9 | 0.0 | ||||||||||
| 12:30 | 34.2 | 51.4 | 1018.6 | 5.0 | 15.9 | 0.0 | ||||||||||
| 12:35 | 33.9 | 51.0 | 1018.5 | 12.2 | 15.9 | 0.0 | ||||||||||
| 12:40 | 34.1 | 50.9 | 1018.5 | 8.9 | 15.9 | 0.0 | ||||||||||
| 12:45 | 34.2 | 51.2 | 1018.5 | 6.1 | 15.9 | 0.0 | ||||||||||
| 12:50 | 34.2 | 51.2 | 1018.5 | 6.1 | 15.9 | 0.0 | ||||||||||
| 12:55 | 34.0 | 52.5 | 1018.3 | 8.9 | 15.9 | 0.0 | ||||||||||
| 13:00 | 34.2 | 51.8 | 1018.2 | 6.5 | 15.9 | 0.0 | ||||||||||
| 13:05 | 34.2 | 51.2 | 1018.2 | 7.1 | 15.9 | 0.0 | ||||||||||
| 13:10 | 34.2 | 51.7 | 1018.2 | 6.7 | 15.9 | 0.0 | ||||||||||
| 13:15 | 34.2 | 50.9 | 1018.2 | 8.5 | 15.9 | 0.0 | ||||||||||
| 13:20 | 34.2 | 50.9 | 1018.2 | 8.5 | 15.9 | 0.0 | ||||||||||
| 13:25 | 34.3 | 50.9 | 1018.1 | 7.5 | 15.9 | 0.0 | ||||||||||
| 13:30 | 34.7 | 50.7 | 1018.0 | 7.6 | 15.9 | 0.0 | ||||||||||
| 13:35 | 34.9 | 49.9 | 1017.9 | 5.4 | 15.9 | 0.0 | ||||||||||
| 13:40 | 34.9 | 48.8 | 1018.0 | 8.4 | 15.9 | 0.0 | ||||||||||
| 13:45 | 34.9 | 49.1 | 1017.9 | 8.4 | 15.9 | 0.0 | ||||||||||
| 13:50 | 34.8 | 49.7 | 1017.9 | 7.0 | 15.9 | 0.0 | ||||||||||
| 13:55 | 34.6 | 51.2 | 1017.8 | 8.2 | 15.9 | 0.0 | ||||||||||
| 14:00 | 34.6 | 51.2 | 1017.8 | 8.2 | 15.9 | 0.0 | ||||||||||
| 14:05 | 34.3 | 53.5 | 1017.9 | 10.3 | 15.9 | 0.0 | ||||||||||
| 14:10 | 33.8 | 54.3 | 1017.9 | 13.3 | 15.9 | 0.0 | ||||||||||
| 14:15 | 33.5 | 56.3 | 1017.9 | 12.1 | 15.9 | 0.0 | ||||||||||
| 14:20 | 33.6 | 56.1 | 1017.9 | 10.7 | 15.9 | 0.0 | ||||||||||
| 14:25 | 33.8 | 56.0 | 1017.8 | 6.6 | 15.9 | 0.0 | ||||||||||
| 14:30 | 33.8 | 56.0 | 1017.8 | 6.6 | 15.9 | 0.0 | ||||||||||
| 14:35 | 33.5 | 55.1 | 1017.8 | 9.8 | 15.9 | 0.0 | ||||||||||
| 14:40 | 33.5 | 55.1 | 1017.8 | 9.8 | 15.9 | 0.0 | ||||||||||
| 14:45 | 33.7 | 55.0 | 1017.8 | 6.3 | 15.9 | 0.0 | ||||||||||
| 14:50 | 33.7 | 55.0 | 1017.8 | 6.3 | 15.9 | 0.0 | ||||||||||
| 14:55 | 34.1 | 53.7 | 1017.7 | 11.3 | 15.9 | 0.0 | ||||||||||
| 15:00 | 34.1 | 53.8 | 1017.7 | 5.8 | 15.9 | 0.0 | ||||||||||
| 15:05 | 34.1 | 54.1 | 1017.6 | 6.2 | 15.9 | 0.0 | ||||||||||
| 15:10 | 34.2 | 52.1 | 1017.6 | 5.4 | 15.9 | 0.0 | ||||||||||
| 15:15 | 34.2 | 53.6 | 1017.6 | 6.3 | 15.9 | 0.0 | ||||||||||
| 15:20 | 34.1 | 54.6 | 1017.6 | 6.0 | 15.9 | 0.0 | ||||||||||
| 15:25 | 34.0 | 54.4 | 1017.6 | 7.1 | 15.9 | 0.0 | ||||||||||
| 15:30 | 34.0 | 54.4 | 1017.6 | 7.1 | 15.9 | 0.0 | ||||||||||
| 15:35 | 33.5 | 56.3 | 1017.5 | 7.1 | 15.9 | 0.0 | ||||||||||
| 15:40 | 33.6 | 56.9 | 1017.6 | 6.5 | 15.9 | 0.0 | ||||||||||
| 15:45 | 33.6 | 56.6 | 1017.6 | 6.8 | 15.9 | 0.0 | ||||||||||
| 15:50 | 33.6 | 56.6 | 1017.6 | 6.8 | 15.9 | 0.0 | ||||||||||
| 15:55 | 33.5 | 57.2 | 1017.6 | 7.1 | 15.9 | 0.0 | ||||||||||
| 16:00 | 33.4 | 57.6 | 1017.6 | 8.7 | 15.9 | 0.0 | ||||||||||
| 16:05 | 33.4 | 57.9 | 1017.7 | 7.6 | 15.9 | 0.0 | ||||||||||
| 16:10 | 33.3 | 58.1 | 1017.7 | 7.0 | 15.9 | 0.0 | ||||||||||
| 16:15 | 33.2 | 58.7 | 1017.7 | 8.1 | 15.9 | 0.0 | ||||||||||
| 16:20 | 33.2 | 58.7 | 1017.7 | 8.1 | 15.9 | 0.0 | ||||||||||
| 16:25 | 32.8 | 60.7 | 1017.7 | 9.1 | 15.9 | 0.0 | ||||||||||
| 16:30 | 32.6 | 61.6 | 1017.6 | 5.5 | 15.9 | 0.0 | ||||||||||
| 16:35 | 32.3 | 62.2 | 1017.5 | 7.9 | 15.9 | 0.0 | ||||||||||
| 16:40 | 32.3 | 62.2 | 1017.5 | 7.9 | 15.9 | 0.0 | ||||||||||
| 16:45 | 31.9 | 63.6 | 1017.6 | 7.2 | 15.9 | 0.0 | ||||||||||
| 16:50 | 31.9 | 63.6 | 1017.6 | 7.2 | 15.9 | 0.0 | ||||||||||
| Màxima | 34.9 | 87.7 | 1020.6 | 13.3 | 15.9 | 0.0 | ||||||||||
| Mínima | 18.7 | 47.6 | 1017.5 | |||||||||||||
| Total | 0.0 | |||||||||||||||